Vertical_Velocity
-0 1 1 3 -1 1 -1 -1 -1 1 -0 6 8 -8 -4 1 0 -5 2 -0 -2 -2 -2 3 -2 1 -3 2 1 1 -2 -3 -0 -1 -2 -0 -1 0 -1 -1 -2 -2 -1 0 0 -1 -1 -0 2
0 -2 1 1 0 1 1 -1 -1 1 5 -3 -3 3 -3 5 -2 2 -3 4 -5 -0 -3 -0 -2 -0 0 3 -0 -0 -1 1 -1 -0 0 -0 1 1 -1 -1 2 1 1 -0 -1 -1 -3 0 -2
-5 15 1 1 -0 1 -1 -1 -5 10 5 -5 -2 -1 1 6 3 1 2 -1 0 -0 -3 -1 -0 -1 1 0 -2 -2 -0 1 -1 -2 -1 1 -1 0 -0 -0 -2 -1 -3 -2 -1 -1 1 -1 1
-5 2 1 1 -2 3 -2 -3 -5 5 11 -5 -6 -1 -3 -1 4 -10 7 2 -3 -4 0 0 -0 -3 0 -0 -2 -1 -0 -0 -4 1 2 1 -1 -2 -2 -3 -1 -0 -1 -2 3 -2 -1 -1 2
4 3 1 1 -3 1 1 -1 -5 0 1 6 -2 13 0 3 -4 6 -4 -6 -7 -0 -1 -0 -0 -1 -1 -1 -0 -1 2 -2 -1 -1 -0 2 -0 2 -3 -2 -1 -0 1 0 -4 1 1 2 -4
0 2 2 0 -0 0 2 3 -1 -1 5 2 -1 -3 6 -6 -1 8 16 -5 1 -6 -3 -1 -1 -2 -3 -3 1 -2 -0 -0 -2 -4 3 -1 1 -0 0 -2 -1 -1 -4 -4 -0 -2 -1 -2 -2
4 0 -1 -0 0 1 2 1 -3 -1 -0 9 -0 -5 6 6 1 36 -4 2 -2 -0 -3 -3 -2 -2 -2 1 -1 -1 -2 -0 -1 -1 1 0 0 -3 2 -1 -1 -2 -0 -2 1 2 3 -3 -4
3 -2 -0 -0 -0 1 1 0 -1 2 6 11 -19 -2 1 -7 15 10 1 -2 -2 3 -4 -5 -1 -1 -3 -1 -1 -0 -2 0 -1 -1 1 -0 2 -0 -0 -0 1 -0 1 0 -1 4 1 2 7
12 -3 -1 -1 1 -1 3 -2 4 -1 -9 7 0 -8 -18 -8 27 5 7 3 3 3 -4 -4 -3 -0 -1 -0 -3 1 -2 1 -2 2 2 0 1 -0 -3 0 -1 -1 -4 2 1 -2 -3 2 1
-3 1 -3 -1 0 -1 -1 -5 -4 1 2 -1 3 15 5 4 18 5 -2 -6 2 -3 0 -8 -4 -1 -3 -4 -2 2 0 -0 1 0 -3 -4 -3 -3 -1 2 -0 2 -1 -1 4 6 -3 -3 -12
-3 -3 -2 -7 -5 0 -0 1 3 0 1 -8 -12 -5 -4 4 24 3 4 -6 -14 -5 0 -2 -1 -2 -4 -4 -4 -1 -1 -0 -1 -2 -2 -2 2 3 3 -5 -4 1 -4 1 -0 3 -5 -28 -4
15 0 -4 -5 -1 1 -1 -2 0 1 -2 6 9 -12 -7 6 5 0 -6 -7 -0 9 -3 -4 -1 -7 1 -4 -6 2 -3 -3 -2 2 1 -7 9 1 -4 -1 -5 -7 4 4 5 -17 -7 -2 -14
9 -5 2 -2 9 6 -1 0 -2 -6 -12 3 11 5 1 8 1 1 -5 0 7 8 -1 4 -0 -6 4 1 -10 4 4 -1 2 -8 1 -5 0 1 15 -8 -8 2 -11 -3 -5 -0 2 7 -2
-3 3 0 3 3 -4 -5 0 1 -1 -4 2 20 1 2 -0 -0 8 6 -2 12 -6 3 0 5 2 -2 3 -8 7 2 1 5 -2 -12 1 -7 3 12 -3 -16 -4 -0 3 10 0 5 0 12
-1 1 -3 5 0 1 -12 7 -1 2 2 -1 15 2 1 -9 3 22 -6 -6 1 4 -0 -4 -5 -4 -1 3 -3 3 7 6 14 -8 -1 3 -8 -7 -7 0 -1 3 -7 -4 -7 -10 8 -2 -3
4 3 1 -6 2 6 1 4 5 -1 -8 -8 5 1 -1 -4 -5 19 0 -4 14 0 -5 -2 -1 -9 -6 3 -5 2 16 3 7 -5 2 -10 5 7 0 -4 3 -8 4 5 11 3 10 6 7
-2 -1 1 -5 -2 0 -5 3 2 2 6 5 -2 5 -3 -1 10 13 3 -4 4 -3 -3 -3 -1 -6 -4 -2 -6 3 3 3 4 3 6 -0 -4 -1 -1 -4 -6 1 -2 -0 1 8 -11 2 3
-4 1 0 -2 -2 5 2 5 5 -1 2 5 6 0 0 2 8 4 5 7 -1 -0 -0 -1 -3 -3 -1 0 5 -4 2 -0 11 -5 2 -2 0 -0 0 -2 7 -2 -3 -1 -3 1 16 4 3
3 4 1 -6 -3 2 -2 0 1 2 -1 -6 -4 3 -6 2 6 3 2 4 -0 0 -3 -1 -6 -4 -7 -9 -3 -1 -3 0 -3 -2 2 -5 -4 -2 -6 6 -8 2 5 2 -3 7 -1 8 -5
2 2 -6 -8 -2 -3 2 4 1 0 -3 -8 -5 5 1 -0 13 1 6 4 1 -7 -2 -2 -5 -4 -4 -6 -3 -3 -3 5 -2 -1 1 3 -2 1 0 0 -2 -2 -2 -2 -4 -1 -1 -2 20
-2 0 -2 2 -3 1 -7 -1 6 2 5 10 -12 6 18 -13 3 2 8 1 -2 -3 -6 -4 -8 -2 -4 -4 -1 2 6 10 2 -2 -1 -5 1 -2 1 -1 -3 0 0 -5 -1 4 -3 -2 3
2 -1 2 1 1 -2 -3 -4 1 -0 2 1 1 -7 1 8 11 -0 -2 8 -5 -4 1 -2 -4 -2 -1 -3 -1 -3 -6 -5 4 -7 -3 -3 2 -5 -3 -1 -1 -4 -3 -7 2 3 -6 -1 0
-9 3 2 2 1 3 -9 1 -8 -0 3 2 5 -33 5 13 -6 -5 -4 -4 3 -4 -4 -1 -3 -2 -1 -5 -4 -1 1 1 -2 0 -5 7 1 -2 -5 -1 -2 1 -0 3 -6 -10 -2 3 0
-1 2 -1 -1 0 -0 -5 -4 -2 -3 -9 2 4 -5 -10 -11 3 2 -3 2 5 4 -0 2 -3 -5 -2 -1 -3 -3 -3 -3 13 4 5 -2 -4 0 -4 -3 -0 1 -3 -2 2 -2 -2 -3 -1
4 0 -4 -6 -3 -4 -1 -0 -10 -3 -1 -9 -6 2 2 12 9 3 -3 1 7 -7 -5 -2 -2 -5 -4 -4 -2 -6 -3 -2 2 0 2 -2 -5 -4 -4 -2 -5 -5 -3 -5 -3 2 -4 -5 -7
-2 -6 -7 -4 -2 -5 -0 -2 -20 -7 -5 -6 4 -4 -3 0 7 5 -7 -11 -3 -6 1 1 -0 1 -1 -1 -4 -2 -4 -1 -3 0 -5 -1 -2 -4 2 -2 1 -1 -1 -5 -3 -1 3 1 -3
-14 -1 -12 2 -1 0 -2 -9 -4 -1 6 6 1 5 8 9 8 27 22 -7 1 -3 -5 -8 -2 3 -1 0 2 -3 -2 -3 -6 -1 -1 6 -1 -1 5 -0 -1 -1 -1 -3 -3 -5 -2 -1 -2
-11 -5 -12 -3 1 -1 -4 -2 -7 -2 -2 3 5 1 2 -7 -4 -9 -8 30 11 -1 1 1 -3 -7 -1 -1 2 1 -5 -4 -3 4 1 -2 8 8 -1 2 3 1 1 -0 -2 -3 -2 -4 -4
-7 -2 -3 -5 -1 -1 -1 -10 -5 -3 2 -3 -3 0 -8 -2 -6 -87 -16 4 -6 -5 16 1 -1 -3 -4 0 -1 2 -3 -2 1 -2 -0 -1 -1 4 -3 -4 2 3 -1 -1 -5 -0 -1 -3 1
6 0 0 -3 -11 -2 -3 -15 0 1 3 1 1 -2 -0 -0 -5 -9 -2 1 -1 -1 10 1 -2 -5 -5 2 1 -4 4 1 1 -3 -4 -1 -3 5 -1 -1 -2 -2 1 1 -4 -2 -1 -2 -2
Height
1512 1514 1518 1520 1528 1522 1519 1505 1504 1499 1493 1495 1501 1504 1507 1506 1509 1527 1528 1534 1538 1543 1547 1552 1554 1556 1558 1560 1562 1562 1564 1566 1568 1569 1571 1571 1571 1572 1572 1572 1573 1573 1573 1574 1575 1576 1577 1579 1580
1513 1514 1517 1519 1527 1525 1524 1511 1507 1492 1497 1498 1502 1505 1508 1516 1514 1520 1528 1535 1539 1544 1548 1551 1554 1557 1559 1562 1562 1564 1565 1567 1568 1570 1571 1572 1573 1573 1573 1574 1574 1575 1575 1576 1577 1578 1580 1581 1582
1512 1515 1517 1517 1518 1518 1524 1512 1503 1493 1496 1500 1505 1507 1512 1518 1521 1524 1529 1535 1541 1545 1550 1553 1555 1558 1560 1562 1563 1565 1566 1567 1569 1571 1572 1573 1574 1574 1575 1576 1576 1577 1577 1578 1579 1580 1581 1582 1583
1513 1516 1516 1517 1512 1510 1511 1504 1504 1494 1499 1503 1506 1512 1518 1523 1523 1526 1533 1538 1541 1546 1551 1554 1556 1559 1561 1563 1564 1566 1567 1568 1570 1572 1574 1574 1575 1576 1577 1578 1578 1579 1579 1580 1580 1581 1582 1584 1586
1513 1514 1514 1511 1502 1503 1504 1504 1494 1500 1505 1509 1506 1522 1522 1527 1529 1532 1536 1539 1542 1548 1552 1555 1557 1560 1562 1564 1566 1567 1569 1570 1572 1573 1575 1575 1577 1578 1578 1579 1580 1581 1581 1582 1582 1583 1585 1586 1588
1514 1512 1514 1511 1501 1488 1500 1500 1503 1504 1507 1507 1516 1517 1525 1531 1531 1535 1538 1540 1545 1548 1553 1556 1559 1561 1563 1565 1567 1569 1571 1572 1573 1575 1576 1577 1578 1579 1580 1581 1582 1583 1583 1584 1585 1586 1587 1589 1591
1511 1510 1510 1500 1502 1500 1501 1500 1501 1506 1513 1517 1518 1519 1528 1531 1534 1539 1538 1543 1546 1550 1554 1557 1560 1562 1564 1566 1568 1570 1572 1574 1575 1577 1579 1580 1580 1581 1581 1582 1584 1584 1585 1586 1587 1588 1590 1593 1595
1508 1508 1509 1501 1502 1501 1500 1503 1503 1506 1513 1511 1518 1521 1527 1530 1535 1537 1541 1544 1548 1551 1555 1558 1561 1563 1565 1567 1569 1571 1574 1575 1577 1579 1581 1583 1583 1583 1584 1586 1587 1587 1588 1588 1589 1591 1593 1594 1596
1508 1513 1514 1506 1502 1501 1500 1501 1504 1508 1508 1513 1514 1516 1521 1528 1536 1539 1541 1545 1550 1553 1556 1559 1562 1564 1567 1569 1571 1573 1576 1577 1580 1581 1584 1585 1586 1586 1586 1589 1590 1591 1591 1592 1593 1595 1597 1598 1599
1502 1510 1507 1499 1498 1497 1494 1494 1499 1504 1508 1510 1514 1521 1525 1529 1536 1539 1541 1546 1549 1553 1556 1560 1563 1565 1568 1571 1573 1575 1578 1580 1583 1585 1586 1587 1588 1590 1590 1591 1592 1594 1595 1597 1598 1601 1600 1600 1601
1495 1501 1498 1492 1494 1496 1504 1505 1498 1503 1500 1502 1508 1518 1525 1529 1535 1538 1543 1546 1548 1552 1555 1559 1564 1566 1569 1572 1574 1577 1580 1582 1584 1587 1590 1590 1591 1593 1594 1595 1595 1596 1598 1600 1603 1604 1603 1601 1603
1494 1489 1493 1488 1488 1492 1499 1501 1498 1501 1509 1515 1505 1512 1521 1528 1533 1537 1542 1547 1549 1553 1555 1560 1564 1567 1570 1574 1576 1578 1581 1583 1587 1590 1592 1592 1594 1596 1596 1597 1597 1598 1600 1601 1604 1605 1606 1605 1606
1487 1482 1484 1487 1486 1493 1490 1495 1501 1500 1505 1512 1514 1518 1522 1529 1533 1536 1541 1546 1550 1552 1556 1560 1563 1567 1571 1574 1575 1579 1582 1585 1589 1590 1590 1593 1595 1596 1594 1597 1599 1599 1600 1601 1604 1606 1608 1607 1608
1480 1477 1477 1481 1488 1491 1496 1501 1502 1504 1509 1512 1516 1520 1524 1529 1533 1535 1540 1546 1549 1552 1557 1559 1564 1569 1572 1574 1577 1580 1583 1586 1589 1589 1592 1594 1595 1596 1596 1598 1598 1600 1601 1603 1605 1605 1607 1609 1610
1479 1480 1473 1478 1482 1489 1498 1509 1506 1503 1512 1519 1521 1525 1526 1530 1533 1536 1539 1545 1549 1551 1556 1559 1564 1568 1572 1575 1578 1581 1583 1586 1589 1590 1591 1594 1595 1596 1598 1597 1599 1601 1602 1605 1606 1607 1608 1609 1610
1482 1480 1492 1474 1476 1484 1489 1511 1507 1505 1510 1517 1522 1526 1529 1531 1532 1537 1539 1545 1547 1551 1555 1559 1563 1567 1571 1576 1578 1581 1585 1586 1589 1590 1592 1594 1596 1597 1598 1599 1600 1601 1603 1605 1608 1608 1610 1610 1611
1485 1500 1490 1480 1472 1473 1485 1501 1506 1509 1510 1514 1516 1523 1527 1531 1533 1537 1539 1544 1546 1550 1555 1559 1563 1566 1572 1576 1578 1581 1584 1587 1589 1591 1592 1594 1595 1597 1598 1598 1602 1603 1604 1605 1608 1610 1609 1611 1612
1501 1492 1484 1479 1468 1469 1478 1494 1502 1508 1493 1514 1515 1520 1524 1527 1529 1534 1538 1541 1545 1549 1555 1559 1562 1566 1571 1575 1578 1581 1584 1587 1589 1589 1592 1594 1594 1596 1598 1599 1601 1602 1605 1606 1607 1609 1612 1612 1613
1481 1482 1482 1465 1455 1463 1479 1495 1499 1507 1506 1512 1519 1514 1520 1524 1527 1532 1536 1539 1542 1547 1553 1558 1561 1565 1569 1572 1575 1579 1581 1585 1587 1588 1591 1593 1595 1596 1597 1600 1600 1603 1605 1606 1607 1609 1611 1612 1613
1478 1480 1478 1461 1450 1459 1478 1492 1498 1500 1499 1506 1512 1510 1511 1521 1525 1528 1533 1535 1539 1544 1550 1555 1559 1563 1567 1571 1575 1578 1580 1584 1586 1588 1591 1593 1594 1596 1598 1599 1600 1602 1604 1605 1607 1609 1611 1612 1613
1474 1479 1474 1472 1458 1455 1477 1501 1497 1497 1496 1499 1501 1508 1518 1512 1519 1524 1529 1531 1536 1542 1547 1552 1556 1560 1564 1570 1573 1576 1579 1582 1584 1587 1589 1590 1593 1595 1597 1598 1600 1601 1603 1604 1606 1608 1610 1611 1612
1484 1463 1461 1461 1471 1492 1460 1512 1494 1487 1497 1493 1495 1505 1510 1509 1514 1520 1526 1529 1531 1538 1544 1549 1553 1558 1562 1567 1570 1573 1576 1579 1582 1584 1587 1589 1592 1594 1596 1598 1599 1600 1603 1604 1606 1608 1610 1611 1612
1472 1461 1463 1462 1471 1474 1470 1490 1477 1481 1497 1494 1486 1500 1504 1509 1507 1512 1519 1526 1529 1535 1541 1546 1550 1555 1559 1564 1567 1570 1573 1578 1580 1583 1585 1589 1592 1593 1595 1597 1598 1600 1602 1604 1605 1607 1609 1610 1611
1458 1464 1466 1468 1478 1498 1478 1485 1486 1489 1474 1484 1480 1483 1487 1498 1501 1505 1514 1523 1529 1533 1538 1543 1545 1550 1555 1559 1563 1567 1570 1574 1578 1581 1583 1587 1590 1592 1593 1595 1597 1599 1601 1603 1604 1606 1607 1609 1610
1461 1474 1512 1514 1510 1507 1473 1482 1478 1464 1465 1463 1465 1460 1477 1487 1493 1499 1508 1519 1525 1528 1532 1537 1541 1544 1549 1554 1559 1563 1567 1571 1575 1578 1581 1583 1587 1589 1591 1593 1595 1597 1599 1601 1603 1605 1606 1607 1609
1467 1477 1510 1522 1518 1504 1475 1490 1472 1448 1453 1457 1463 1467 1479 1484 1490 1496 1502 1512 1518 1523 1526 1530 1535 1539 1543 1548 1553 1558 1563 1567 1571 1574 1577 1580 1583 1586 1588 1591 1594 1596 1597 1599 1601 1603 1605 1606 1608
1469 1481 1467 1490 1483 1500 1485 1466 1448 1440 1448 1456 1463 1470 1475 1478 1485 1495 1497 1505 1512 1519 1522 1524 1529 1534 1538 1542 1548 1552 1558 1562 1566 1570 1574 1577 1580 1584 1586 1588 1591 1593 1595 1597 1599 1601 1602 1604 1606
1460 1460 1488 1486 1511 1519 1493 1484 1480 1452 1440 1450 1461 1461 1463 1472 1474 1494 1502 1508 1509 1513 1518 1523 1525 1530 1533 1538 1543 1547 1551 1557 1562 1566 1570 1573 1578 1581 1583 1584 1588 1590 1593 1594 1597 1599 1601 1602 1604
1473 1475 1474 1479 1488 1506 1511 1490 1449 1453 1443 1458 1448 1445 1448 1457 1464 1491 1502 1504 1507 1513 1516 1516 1518 1523 1529 1533 1537 1542 1546 1550 1556 1561 1565 1569 1573 1576 1579 1581 1585 1587 1589 1592 1594 1596 1599 1600 1602
1472 1477 1474 1497 1498 1488 1492 1485 1439 1449 1447 1455 1449 1446 1446 1451 1460 1466 1472 1488 1495 1501 1508 1508 1511 1515 1519 1526 1530 1535 1540 1544 1549 1554 1559 1564 1568 1572 1575 1578 1581 1584 1586 1589 1590 1593 1595 1597 1598